User: anonymous   Login
Location: Noordwijk
(52.2400°N, 4.4500°E)
Time: 11:18:16
(UTC+00:00)
Language:

METEOR M2 - Orbit

View from above orbital plane
View from above orbital plane
View from above satellite
View from above satellite

Ground track
Ground track

The orbit data is extracted from the following two-line orbital elements,

1 40069U 14037A   22338.05218944  .00000007  00000-0  22166-4 0  9993
2 40069  98.4269 348.0817 0005609 178.4193 181.7012 14.20728305435940
Epoch (UTC): 04 December 2022 01:15:09
Eccentricity: 0.0005609
inclination: 98.4269°
perigee height: 819 km
apogee height: 827 km
right ascension of ascending node: 348.0817°
argument of perigee: 178.4193°
revolutions per day: 14.20728305
mean anomaly at epoch: 181.7012°
orbit number at epoch: 43594

The dashed part of the orbit path shows where the satellite is in the earth's shadow,  

DLR